Weather History for KDLS - July, 2014

Change the Weather History Date:

Wednesday, July 16, 2014

  Actual Average Record
Temperature  
Mean Temperature 86 °F -  
Max Temperature 102 °F 87 °F 105 °F (1960)
Min Temperature 69 °F 59 °F 49 °F (1963)
Cooling Degree Days 20    
Growing Degree Days 36 (Base 50)    
Moisture  
Dew Point 52 °F    
Average Humidity 38    
Maximum Humidity 73    
Minimum Humidity 9    
Precipitation  
Precipitation 0.00 in - - ()
Sea Level Pressure  
Sea Level Pressure 29.84 in    
Wind  
Wind Speed 12 mph (NW)    
Max Wind Speed 24 mph    
Max Gust Speed 34 mph    
Visibility 10 miles    
Events      
Averages and records for this station are not official NWS values.
T = Trace of Precipitation, MM = Missing Value Source: NWS Daily Summary

Daily Weather History Graph

Daily Weather History Graph

Search for Another Location

Airport or City:

Trip Planner

Search our weather history database for the weather conditions in past years. The results will help you decide how hot, cold, wet, or windy it might be!

Date:

Astronomy

Jul. 16, 2014 Rise Set
Actual Time 5:31 AM PDT 8:49 PM PDT
Civil Twilight 4:54 AM PDT 9:26 PM PDT
Nautical Twilight 4:07 AM PDT 10:13 PM PDT
Astronomical Twilight 3:07 AM PDT 11:12 PM PDT
Moon 11:17 PM PDT (7/16) 10:58 AM PDT (7/16)
Length of Visible Light 16h 31m
Length of Day
15h 18m
Waning Gibbous, 75% of the Moon is Illuminated
Jul 16
Waning Gibbous
Jul 18
Last Quarter
Jul 26
New
Aug 3
First Quarter
Aug 10
Full

Hourly Weather History & Observations

Time (PDT) Temp. Heat Index Dew Point Humidity Pressure Visibility Wind Dir Wind Speed Gust Speed Precip Events Conditions
12:53 AM 80.1 °F 81.5 °F 63.0 °F 56% 29.86 in 10.0 mi NW 12.7 mph - N/A   Clear
1:53 AM 77.0 °F - 62.1 °F 60% 29.86 in 10.0 mi WNW 8.1 mph - N/A   Clear
2:53 AM 75.9 °F - 62.1 °F 62% 29.87 in 10.0 mi WNW 5.8 mph - N/A   Clear
3:53 AM 73.9 °F - 62.1 °F 66% 29.87 in 10.0 mi NW 8.1 mph - N/A   Clear
4:53 AM 71.1 °F - 60.1 °F 68% 29.88 in 10.0 mi SW 3.5 mph - N/A   Clear
5:53 AM 69.1 °F - 60.1 °F 73% 29.90 in 10.0 mi East 3.5 mph - N/A   Clear
6:53 AM 71.1 °F - 57.9 °F 63% 29.91 in 10.0 mi SSE 5.8 mph - N/A   Clear
7:53 AM 77.0 °F - 60.1 °F 56% 29.91 in 10.0 mi Calm Calm - N/A   Clear
8:53 AM 80.1 °F 81.2 °F 62.1 °F 54% 29.91 in 10.0 mi NNW 8.1 mph - N/A   Clear
9:53 AM 84.0 °F 84.5 °F 62.1 °F 47% 29.90 in 10.0 mi NNW 9.2 mph - N/A   Clear
10:53 AM 88.0 °F 87.9 °F 61.0 °F 40% 29.88 in 10.0 mi NNW 16.1 mph - N/A   Clear
11:53 AM 91.9 °F 91.2 °F 59.0 °F 33% 29.86 in 10.0 mi NNW 19.6 mph 27.6 mph N/A   Clear
12:53 PM 98.1 °F - 52.0 °F 21% 29.84 in 10.0 mi NNW 18.4 mph - N/A   Clear
1:53 PM 98.1 °F - 46.9 °F 18% 29.82 in 10.0 mi NNW 16.1 mph 26.5 mph N/A   Clear
2:53 PM 102.0 °F - 34.0 °F 9% 29.79 in 10.0 mi NW 21.9 mph 31.1 mph N/A   Clear
3:53 PM 100.9 °F - 36.0 °F 11% 29.78 in 10.0 mi WNW 24.2 mph 34.5 mph N/A   Clear
4:53 PM 100.0 °F - 39.9 °F 13% 29.77 in 10.0 mi WNW 20.7 mph 32.2 mph N/A   Clear
5:53 PM 98.1 °F - 41.0 °F 14% 29.77 in 10.0 mi WNW 19.6 mph - N/A   Clear
6:53 PM 95.0 °F - 44.1 °F 17% 29.76 in 10.0 mi NW 16.1 mph 25.3 mph N/A   Clear
7:53 PM 91.0 °F - 43.0 °F 19% 29.78 in 10.0 mi NW 12.7 mph - N/A   Clear
8:53 PM 87.1 °F - 36.0 °F 16% 29.78 in 10.0 mi North - - N/A   Clear
9:53 PM 86.0 °F - 37.0 °F 18% 29.80 in 10.0 mi WNW 16.1 mph - N/A   Clear
10:53 PM 82.0 °F - 48.0 °F 30% 29.81 in 10.0 mi WNW 24.2 mph 29.9 mph N/A   Clear
11:53 PM 79.0 °F - 54.0 °F 42% 29.81 in 10.0 mi NW 19.6 mph - N/A   Clear